Crescent City, CA

4:48 AM PST on December 04, 2016 (GMT -0800)
McNamara

Weather History for KCEC - July, 2013

Change the Weather History Date:

Sunday, July 28, 2013

  Actual Average Record
Temperature  
Mean Temperature 54 °F 57 °F  
Max Temperature 62 °F 62 °F 72 °F (1967)
Min Temperature 46 °F 52 °F 43 °F (1949)
Degree Days  
Heating Degree Days 12 8  
Month to date heating degree days 248  
Since 1 June heating degree days 557  
Since 1 July heating degree days 248  
Cooling Degree Days 0 0  
Month to date cooling degree days 0  
Year to date cooling degree days 0  
Since 1 June cooling degree days 0  
Growing Degree Days 4 (Base 50)    
Moisture  
Dew Point 50 °F    
Average Humidity 86    
Maximum Humidity 100    
Minimum Humidity 72    
Precipitation  
Precipitation 0.00 in 0.00 in 0.07 in (1950)
Month to date precipitation 0.00 0.39  
Year to date precipitation 19.93 37.32  
Since 1 July precipitation 0.00  
Snow  
Snow 0.00 in - - ()
Month to date snowfall 0.0  
Since 1 June snowfall 0.0  
Since 1 July snowfall 0.0  
Snow Depth -    
Sea Level Pressure  
Sea Level Pressure 29.91 in    
Wind  
Wind Speed 8 mph (NW)    
Max Wind Speed 24 mph    
Max Gust Speed 33 mph    
Visibility 5 miles    
Events Fog    
T = Trace of Precipitation, MM = Missing Value Source: NWS Daily Summary

Daily Weather History Graph

Daily Weather History Graph

Search for Another Location

Airport or City:

Trip Planner

Search our weather history database for the weather conditions in past years. The results will help you decide how hot, cold, wet, or windy it might be!

Date:

Astronomy

Jul. 28, 2013 Rise Set
Actual Time 6:07 AM PDT 8:38 PM PDT
Civil Twilight 5:35 AM PDT 9:10 PM PDT
Nautical Twilight 4:55 AM PDT 9:50 PM PDT
Astronomical Twilight 4:11 AM PDT 10:34 PM PDT
Moon 11:56 PM PDT (7/28) 1:02 PM PDT (7/28)
Length of Visible Light 15h 35m
Length of Day
14h 31m
Waning Gibbous, 60% of the Moon is Illuminated
Jul 28
Waning Gibbous
Jul 29
Last Quarter
Aug 6
New
Aug 14
First Quarter
Aug 20
Full

Hourly Weather History & Observations

Time (PDT) Temp. Dew Point Humidity Pressure Visibility Wind Dir Wind Speed Gust Speed Precip Events Conditions
12:56 AM 52.0 °F 50.0 °F 93% 29.96 in 7.0 mi SSW 3.5 mph - N/A   Overcast
1:56 AM 51.1 °F 48.0 °F 89% 29.95 in 6.0 mi SW 3.5 mph - N/A   Overcast
2:24 AM 51.8 °F 48.2 °F 88% 29.94 in 6.0 mi SW 4.6 mph - N/A   Overcast
2:39 AM 51.8 °F 48.2 °F 88% 29.94 in 6.0 mi SSW 3.5 mph - N/A   Overcast
2:56 AM 51.1 °F 50.0 °F 96% 29.94 in 6.0 mi Calm Calm - N/A   Overcast
3:56 AM 51.1 °F 50.0 °F 96% 29.94 in 6.0 mi Calm Calm - N/A   Overcast
4:37 AM 51.8 °F 48.2 °F 88% 29.93 in 5.0 mi East 3.5 mph - N/A   Overcast
4:56 AM 51.1 °F 48.9 °F 92% 29.93 in 5.0 mi East 3.5 mph - N/A   Overcast
5:34 AM 50.0 °F 48.2 °F 94% 29.92 in 5.0 mi Calm Calm - N/A   Overcast
5:42 AM 50.0 °F 48.2 °F 94% 29.92 in 5.0 mi Calm Calm - N/A   Overcast
5:56 AM 48.9 °F 48.0 °F 97% 29.91 in 5.0 mi Calm Calm - N/A   Overcast
6:15 AM 46.4 °F 46.4 °F 100% 29.92 in 1.8 mi Calm Calm - N/A   Overcast
6:17 AM 46.4 °F 46.4 °F 100% 29.92 in 0.8 mi Calm Calm - N/A   Overcast
6:40 AM 48.2 °F 48.2 °F 100% 29.92 in 0.2 mi Calm Calm - N/A Fog Fog
6:44 AM 48.2 °F 48.2 °F 100% 29.92 in 1.0 mi Calm Calm - N/A   Overcast
6:48 AM 50.0 °F 48.2 °F 94% 29.92 in 0.8 mi Calm Calm - N/A   Mist
6:56 AM 50.0 °F 50.0 °F 100% 29.93 in 0.5 mi Calm Calm - N/A Fog Fog
7:44 AM 51.8 °F 51.8 °F 100% 29.92 in 1.5 mi Calm Calm - N/A   Overcast
7:53 AM 51.8 °F 51.8 °F 100% 29.92 in 2.5 mi Calm Calm - N/A   Overcast
7:56 AM 52.0 °F 52.0 °F 100% 29.93 in 2.5 mi Calm Calm - N/A   Overcast
8:03 AM 51.8 °F 51.8 °F 100% 29.92 in 4.0 mi Calm Calm - N/A   Overcast
8:40 AM 53.6 °F 51.8 °F 94% 29.92 in 5.0 mi Calm Calm - N/A   Overcast
8:56 AM 55.0 °F 52.0 °F 89% 29.92 in 5.0 mi Calm Calm - N/A   Overcast
9:56 AM 55.9 °F 52.0 °F 87% 29.91 in 7.0 mi Variable 5.8 mph - N/A   Overcast
10:56 AM 57.9 °F 51.1 °F 78% 29.91 in 8.0 mi NNW 20.7 mph 28.8 mph N/A   Overcast
11:10 AM 59.0 °F 51.8 °F 77% 29.91 in 8.0 mi NNW 19.6 mph 25.3 mph N/A   Overcast
11:56 AM 60.1 °F 52.0 °F 75% 29.92 in 8.0 mi NNW 13.8 mph 23.0 mph N/A   Overcast
12:45 PM 60.8 °F 51.8 °F 72% 29.91 in 8.0 mi NNW 16.1 mph 25.3 mph N/A   Overcast
12:56 PM 61.0 °F 52.0 °F 72% 29.91 in 8.0 mi NNW 17.3 mph 27.6 mph N/A   Overcast
1:08 PM 60.8 °F 51.8 °F 72% 29.91 in 7.0 mi NNW 19.6 mph 29.9 mph N/A   Overcast
1:56 PM 61.0 °F 52.0 °F 72% 29.90 in 8.0 mi NNW 19.6 mph 32.2 mph N/A   Scattered Clouds
2:56 PM 61.0 °F 52.0 °F 72% 29.88 in 7.0 mi NNW 20.7 mph 29.9 mph N/A   Overcast
3:56 PM 60.1 °F 51.1 °F 72% 29.88 in 7.0 mi NNW 19.6 mph 28.8 mph N/A   Overcast
4:56 PM 59.0 °F 51.1 °F 75% 29.86 in 7.0 mi NNW 16.1 mph 28.8 mph N/A   Overcast
5:56 PM 57.9 °F 51.1 °F 78% 29.87 in 7.0 mi NNW 18.4 mph 28.8 mph N/A   Overcast
6:56 PM 55.9 °F 50.0 °F 80% 29.86 in 7.0 mi NNW 16.1 mph 28.8 mph N/A   Overcast
7:56 PM 55.0 °F 50.0 °F 83% 29.85 in 6.0 mi NNW 13.8 mph 24.2 mph N/A   Haze
8:56 PM 54.0 °F 50.0 °F 86% 29.86 in 5.0 mi West 3.5 mph - N/A   Overcast
9:56 PM 55.0 °F 51.1 °F 86% 29.87 in 9.0 mi SSE 8.1 mph - N/A   Overcast
10:56 PM 54.0 °F 51.1 °F 90% 29.87 in 8.0 mi SSE 11.5 mph - N/A   Overcast
11:56 PM 54.0 °F 51.1 °F 90% 29.87 in 8.0 mi South 12.7 mph - N/A   Overcast